Home   Weather   Mehamn   Past weeks

Flag for Norway Past Weather in Mehamn, Norway — Yesterday and Last 2 Weeks

Now
32 °F

Chilly.


Feels Like: 20 °F
Forecast: 25 / 27 °F
Wind: 17 mph from North

Location: Mehamn

Current Time: Dec 10, 2016 at 2:09:01 am

Latest Report: Dec 10, 2016 at 1:00 am


Visibility: N/A

Pressure: 29.47 "Hg

Humidity: 62%

Dew Point: 20 °F

Location of MehamnLocation

Past Weather in Mehamn — Graph

°F

Mehamn Temperature Yesterday

Maximum temperature yesterday: 33 °F (at 12:00 am)
Minimum temperature yesterday: 27 °F (at 6:00 am)
Average temperature yesterday: 30 °F

High & Low Weather Summary for the Past Weeks

 TemperatureHumidityPressure
High35 °F (Dec 1, 4:00 am)96% (Dec 7, 11:00 pm)30.02 "Hg (Dec 7, 11:00 pm)
Low10 °F (Dec 5, 8:00 am)45% (Dec 1, 11:00 pm)28.67 "Hg (Dec 8, 9:00 pm)
Average26 °F76%29.54 "Hg
* Reported Nov 25 12:00 am — Dec 10 12:00 am, Mehamn, Weather by CustomWeather, © 2016

Note: Actual official high and low records may vary slightly from our data, if they occured in-between our weather recording intervals... More about our weather records

Advertising

Mehamn Weather History for the Previous 24 Hours

Scroll right to see more
 ConditionsComfort  
Time TempWeatherWind HumidityBarometerVisibility
12:00 am
Sat, Dec 10
31 °FChilly.16 mph64%29.44 "HgN/A
11:00 pm
Fri, Dec 9
32 °FChilly.15 mph53%29.44 "HgN/A
10:00 pm31 °FChilly.16 mph53%29.41 "HgN/A
9:00 pm31 °FChilly.16 mph53%29.41 "HgN/A
8:00 pm32 °FChilly.16 mph54%29.38 "HgN/A
7:00 pm32 °FChilly.14 mph54%29.35 "HgN/A
6:00 pm31 °FChilly.14 mph59%29.35 "HgN/A
5:00 pm31 °FChilly.17 mph62%29.35 "HgN/A
4:00 pm31 °FChilly.18 mph57%29.32 "HgN/A
3:00 pm31 °FChilly.20 mph57%29.29 "HgN/A
2:00 pm31 °FChilly.21 mph58%29.26 "HgN/A
1:00 pm32 °FChilly.22 mph72%29.23 "HgN/A
12:00 pm31 °FChilly.22 mph71%29.18 "HgN/A
11:00 am30 °FChilly.24 mph80%29.12 "HgN/A
10:00 am29 °FChilly.25 mph91%29.06 "HgN/A
9:00 am31 °FChilly.26 mph96%28.97 "HgN/A
8:00 am28 °FChilly.15 mph94%28.97 "HgN/A
7:00 am29 °FChilly.18 mph66%29.00 "HgN/A
6:00 am27 °FChilly.18 mph80%29.00 "HgN/A
5:00 am28 °FChilly.16 mph62%29.03 "HgN/A
4:00 am28 °FChilly.21 mph65%29.03 "HgN/A
3:00 am29 °FChilly.25 mph67%28.97 "HgN/A
2:00 am28 °FChilly.30 mph82%28.94 "HgN/A
Weather by CustomWeather, © 2016

See weather overviewHow to use our weather pages